Time,TemperatureF,DewpointF,PressureIn,WindDirection,WindDirectionDegrees,WindSpeedMPH,WindSpeedGustMPH,Humidity,HourlyPrecipIn,Conditions,Clouds,dailyrainin,SoftwareType,DateUTC
2013-10-19 00:01:00,31.5,14.5,30.08,South,191,0.0,0.0,49,0.00,,---,0.00,VWS V14.01,2013-10-19 06:01:00,
2013-10-19 00:06:00,31.1,14.2,30.08,South,191,0.0,0.0,49,0.00,,---,0.00,VWS V14.01,2013-10-19 06:06:00,
2013-10-19 00:11:00,30.7,13.9,30.08,South,191,0.0,0.0,49,0.00,,---,0.00,VWS V14.01,2013-10-19 06:11:00,
2013-10-19 00:16:00,30.2,13.8,30.08,South,191,0.0,0.0,50,0.00,,---,0.00,VWS V14.01,2013-10-19 06:16:00,
2013-10-19 00:21:00,30.2,13.8,30.08,SSW,208,0.0,0.0,50,0.00,,---,0.00,VWS V14.01,2013-10-19 06:21:00,
2013-10-19 00:26:00,30.2,13.8,30.08,SSW,208,0.0,0.0,50,0.00,,---,0.00,VWS V14.01,2013-10-19 06:26:00,
2013-10-19 00:31:00,30.4,14.0,30.08,WSW,257,0.0,0.0,50,0.00,,---,0.00,VWS V14.01,2013-10-19 06:31:00,
2013-10-19 00:36:00,31.3,15.3,30.08,West,260,0.0,0.0,51,0.00,,---,0.00,VWS V14.01,2013-10-19 06:36:00,
2013-10-19 00:41:00,31.1,15.1,30.08,West,260,0.0,0.0,51,0.00,,---,0.00,VWS V14.01,2013-10-19 06:41:00,
2013-10-19 00:46:00,30.4,14.0,30.08,SSE,152,0.0,0.0,50,0.00,,---,0.00,VWS V14.01,2013-10-19 06:46:00,
2013-10-19 00:51:00,29.7,13.8,30.08,SW,215,0.0,0.0,51,0.00,,---,0.00,VWS V14.01,2013-10-19 06:51:00,
2013-10-19 00:56:00,29.3,13.4,30.08,SW,215,0.0,0.0,51,0.00,,---,0.00,VWS V14.01,2013-10-19 06:56:00,
2013-10-19 01:01:00,29.1,13.3,30.08,SW,215,0.0,0.0,51,0.00,,---,0.00,VWS V14.01,2013-10-19 07:01:00,
2013-10-19 01:06:00,29.3,13.4,30.08,SW,215,0.0,0.0,51,0.00,,---,0.00,VWS V14.01,2013-10-19 07:06:00,
2013-10-19 01:11:00,29.5,14.0,30.08,SW,219,0.0,0.0,52,0.00,,---,0.00,VWS V14.01,2013-10-19 07:11:00,
2013-10-19 01:16:00,29.8,14.4,30.08,SW,219,0.0,0.0,52,0.00,,---,0.00,VWS V14.01,2013-10-19 07:16:00,
2013-10-19 01:21:00,30.2,14.7,30.08,SW,219,0.0,0.0,52,0.00,,---,0.00,VWS V14.01,2013-10-19 07:21:00,
2013-10-19 01:26:00,30.4,14.4,30.08,SSW,199,0.0,0.0,51,0.00,,---,0.00,VWS V14.01,2013-10-19 07:26:00,
2013-10-19 01:31:00,30.2,14.7,30.08,SSW,199,0.0,0.0,52,0.00,,---,0.00,VWS V14.01,2013-10-19 07:31:00,
2013-10-19 01:36:00,30.0,14.5,30.08,ESE,102,0.0,0.0,52,0.00,,---,0.00,VWS V14.01,2013-10-19 07:36:00,
2013-10-19 01:41:00,29.7,14.2,30.08,East,80,0.0,0.0,52,0.00,,---,0.00,VWS V14.01,2013-10-19 07:41:00,
2013-10-19 01:46:00,28.9,13.5,30.08,East,80,0.0,0.0,52,0.00,,---,0.00,VWS V14.01,2013-10-19 07:46:00,
2013-10-19 01:51:00,29.5,14.5,30.08,ESE,104,0.0,2.2,53,0.00,,---,0.00,VWS V14.01,2013-10-19 07:51:00,
2013-10-19 01:56:00,30.0,15.0,30.08,South,185,0.0,2.2,53,0.00,,---,0.00,VWS V14.01,2013-10-19 07:56:00,
2013-10-19 02:01:00,30.4,15.3,30.08,South,185,0.0,0.0,53,0.00,,---,0.00,VWS V14.01,2013-10-19 08:01:00,
2013-10-19 02:06:00,30.2,14.7,30.08,SE,128,0.0,4.0,52,0.00,,---,0.00,VWS V14.01,2013-10-19 08:06:00,
2013-10-19 02:11:00,29.7,14.2,30.08,SE,128,0.0,4.0,52,0.00,,---,0.00,VWS V14.01,2013-10-19 08:11:00,
2013-10-19 02:16:00,29.3,13.9,30.08,SE,128,0.0,0.0,52,0.00,,---,0.00,VWS V14.01,2013-10-19 08:16:00,
2013-10-19 02:21:00,28.9,13.5,30.08,West,264,2.7,2.7,52,0.00,,---,0.00,VWS V14.01,2013-10-19 08:21:00,
2013-10-19 02:26:00,29.3,14.3,30.08,WNW,282,0.0,4.0,53,0.00,,---,0.00,VWS V14.01,2013-10-19 08:26:00,
2013-10-19 02:31:00,29.8,15.2,30.08,SE,133,3.6,4.9,54,0.00,,---,0.00,VWS V14.01,2013-10-19 08:31:00,
2013-10-19 02:36:00,32.2,17.0,30.08,SW,231,0.0,5.4,53,0.00,,---,0.00,VWS V14.01,2013-10-19 08:36:00,
2013-10-19 02:41:00,33.1,17.8,30.08,SSW,201,0.0,5.4,53,0.00,,---,0.00,VWS V14.01,2013-10-19 08:41:00,
2013-10-19 02:46:00,33.4,17.7,30.08,WSW,243,0.0,0.0,52,0.00,,---,0.00,VWS V14.01,2013-10-19 08:46:00,
2013-10-19 02:51:00,33.4,17.3,30.08,SSE,158,3.1,3.6,51,0.00,,---,0.00,VWS V14.01,2013-10-19 08:51:00,
2013-10-19 02:56:00,33.1,16.9,30.08,SSE,158,0.0,3.6,51,0.00,,---,0.00,VWS V14.01,2013-10-19 08:56:00,
2013-10-19 03:01:00,32.4,16.3,30.08,SE,134,0.0,0.0,51,0.00,,---,0.00,VWS V14.01,2013-10-19 09:01:00,
2013-10-19 03:06:00,31.5,15.0,30.08,WSW,239,0.0,0.0,50,0.00,,---,0.00,VWS V14.01,2013-10-19 09:06:00,
2013-10-19 03:11:00,30.7,14.3,30.08,ESE,115,0.0,0.0,50,0.00,,---,0.00,VWS V14.01,2013-10-19 09:11:00,
2013-10-19 03:16:00,29.7,13.3,30.08,ESE,115,0.0,0.0,50,0.00,,---,0.00,VWS V14.01,2013-10-19 09:16:00,
2013-10-19 03:21:00,29.1,13.3,30.08,ESE,115,0.0,0.0,51,0.00,,---,0.00,VWS V14.01,2013-10-19 09:21:00,
2013-10-19 03:26:00,28.6,12.8,30.08,ESE,115,0.0,0.0,51,0.00,,---,0.00,VWS V14.01,2013-10-19 09:26:00,
2013-10-19 03:31:00,28.4,13.0,30.08,ESE,115,0.0,0.0,52,0.00,,---,0.00,VWS V14.01,2013-10-19 09:31:00,
2013-10-19 03:36:00,28.4,13.0,30.08,ESE,115,0.0,0.0,52,0.00,,---,0.00,VWS V14.01,2013-10-19 09:36:00,
2013-10-19 03:41:00,28.4,13.0,30.08,SSW,209,0.0,0.0,52,0.00,,---,0.00,VWS V14.01,2013-10-19 09:41:00,
2013-10-19 03:46:00,28.2,12.9,30.08,SSE,160,0.0,0.0,52,0.00,,---,0.00,VWS V14.01,2013-10-19 09:46:00,
2013-10-19 03:51:00,28.2,12.9,30.08,SSW,204,0.0,0.0,52,0.00,,---,0.00,VWS V14.01,2013-10-19 09:51:00,
2013-10-19 03:56:00,28.0,12.7,30.05,SSW,204,0.0,0.0,52,0.00,,---,0.00,VWS V14.01,2013-10-19 09:56:00,
2013-10-19 04:01:00,27.9,12.5,30.05,SSW,204,0.0,0.0,52,0.00,,---,0.00,VWS V14.01,2013-10-19 10:01:00,
2013-10-19 04:05:00,27.9,12.5,30.05,South,185,0.0,0.0,52,0.00,,---,0.00,VWS V14.01,2013-10-19 10:05:00,
2013-10-19 04:10:00,27.5,12.2,30.05,South,185,0.0,0.0,52,0.00,,---,0.00,VWS V14.01,2013-10-19 10:10:00,
2013-10-19 04:16:00,27.3,12.0,30.05,South,185,0.0,0.0,52,0.00,,---,0.00,VWS V14.01,2013-10-19 10:16:00,
2013-10-19 04:20:00,27.3,12.0,30.05,SSW,203,0.0,3.1,52,0.00,,---,0.00,VWS V14.01,2013-10-19 10:20:00,
2013-10-19 04:25:00,27.3,12.5,30.05,SSW,203,0.0,3.1,53,0.00,,---,0.00,VWS V14.01,2013-10-19 10:25:00,
2013-10-19 04:30:00,27.3,12.5,30.05,SSW,203,0.0,0.0,53,0.00,,---,0.00,VWS V14.01,2013-10-19 10:30:00,
2013-10-19 04:35:00,26.8,12.0,30.05,SSW,203,0.0,0.0,53,0.00,,---,0.00,VWS V14.01,2013-10-19 10:35:00,
2013-10-19 04:40:00,26.6,12.2,30.05,SSW,203,0.0,0.0,54,0.00,,---,0.00,VWS V14.01,2013-10-19 10:40:00,
2013-10-19 04:45:00,26.8,12.4,30.05,West,259,0.0,0.0,54,0.00,,---,0.00,VWS V14.01,2013-10-19 10:45:00,
2013-10-19 04:50:00,27.0,12.6,30.05,West,259,0.0,0.0,54,0.00,,---,0.00,VWS V14.01,2013-10-19 10:50:00,
2013-10-19 04:55:00,27.0,12.6,30.05,SW,226,0.0,0.0,54,0.00,,---,0.00,VWS V14.01,2013-10-19 10:55:00,
2013-10-19 05:00:00,27.0,12.6,30.05,SW,226,0.0,0.0,54,0.00,,---,0.00,VWS V14.01,2013-10-19 11:00:00,
2013-10-19 05:05:00,27.0,12.6,30.05,South,181,2.7,2.7,54,0.00,,---,0.00,VWS V14.01,2013-10-19 11:05:00,
2013-10-19 05:10:00,27.3,12.9,30.05,SSW,207,0.0,3.6,54,0.00,,---,0.00,VWS V14.01,2013-10-19 11:10:00,
2013-10-19 05:15:00,28.9,15.2,30.05,South,171,4.9,4.9,56,0.00,,---,0.00,VWS V14.01,2013-10-19 11:15:00,
2013-10-19 05:20:00,29.1,14.6,30.05,WSW,258,0.0,5.4,54,0.00,,---,0.00,VWS V14.01,2013-10-19 11:20:00,
2013-10-19 05:25:00,29.3,14.7,30.05,WSW,258,0.0,5.4,54,0.00,,---,0.00,VWS V14.01,2013-10-19 11:25:00,
2013-10-19 05:30:00,29.5,14.9,30.05,WSW,258,0.0,0.0,54,0.00,,---,0.00,VWS V14.01,2013-10-19 11:30:00,
2013-10-19 05:35:00,29.3,14.7,30.05,WSW,258,0.0,0.0,54,0.00,,---,0.00,VWS V14.01,2013-10-19 11:35:00,
2013-10-19 05:40:00,29.1,14.1,30.05,SW,224,0.0,4.0,53,0.00,,---,0.00,VWS V14.01,2013-10-19 11:40:00,
2013-10-19 05:45:00,28.9,14.0,30.05,SW,224,0.0,0.0,53,0.00,,---,0.00,VWS V14.01,2013-10-19 11:45:00,
2013-10-19 05:50:00,28.6,13.6,30.05,SW,224,0.0,0.0,53,0.00,,---,0.00,VWS V14.01,2013-10-19 11:50:00,
2013-10-19 05:55:00,28.6,13.6,30.08,SW,224,0.0,0.0,53,0.00,,---,0.00,VWS V14.01,2013-10-19 11:55:00,
2013-10-19 06:00:00,28.0,13.6,30.08,SW,224,0.0,0.0,54,0.00,,---,0.00,VWS V14.01,2013-10-19 12:00:00,
2013-10-19 06:05:00,27.9,13.4,30.08,SW,224,0.0,0.0,54,0.00,,---,0.00,VWS V14.01,2013-10-19 12:05:00,
2013-10-19 06:10:00,27.5,12.6,30.08,SW,224,0.0,0.0,53,0.00,,---,0.00,VWS V14.01,2013-10-19 12:10:00,
2013-10-19 06:15:00,27.1,12.7,30.08,SW,224,0.0,0.0,54,0.00,,---,0.00,VWS V14.01,2013-10-19 12:15:00,
2013-10-19 06:20:00,26.8,12.4,30.08,SW,224,0.0,0.0,54,0.00,,---,0.00,VWS V14.01,2013-10-19 12:20:00,
2013-10-19 06:25:00,26.6,12.2,30.08,SW,224,0.0,0.0,54,0.00,,---,0.00,VWS V14.01,2013-10-19 12:25:00,
2013-10-19 06:30:00,26.4,12.0,30.08,SW,224,0.0,0.0,54,0.00,,---,0.00,VWS V14.01,2013-10-19 12:30:00,
2013-10-19 06:35:00,26.2,11.9,30.08,SW,224,0.0,0.0,54,0.00,,---,0.00,VWS V14.01,2013-10-19 12:35:00,
2013-10-19 06:40:00,26.2,11.9,30.08,SW,224,0.0,0.0,54,0.00,,---,0.00,VWS V14.01,2013-10-19 12:40:00,
2013-10-19 06:45:00,26.2,12.3,30.08,SW,224,0.0,0.0,55,0.00,,---,0.00,VWS V14.01,2013-10-19 12:45:00,
2013-10-19 06:50:00,26.1,11.7,30.08,SW,225,0.0,0.0,54,0.00,,---,0.00,VWS V14.01,2013-10-19 12:50:00,
2013-10-19 06:55:00,25.9,11.5,30.08,SW,225,0.0,0.0,54,0.00,,---,0.00,VWS V14.01,2013-10-19 12:55:00,
2013-10-19 07:00:00,25.9,11.9,30.08,SW,225,0.0,0.0,55,0.00,,---,0.00,VWS V14.01,2013-10-19 13:00:00,
2013-10-19 07:05:00,25.7,11.8,30.08,SW,225,0.0,0.0,55,0.00,,---,0.00,VWS V14.01,2013-10-19 13:05:00,
2013-10-19 07:10:00,25.3,11.4,30.08,SW,231,0.0,0.0,55,0.00,,---,0.00,VWS V14.01,2013-10-19 13:10:00,
2013-10-19 07:15:00,25.7,11.8,30.08,SSW,203,0.0,0.0,55,0.00,,---,0.00,VWS V14.01,2013-10-19 13:15:00,
2013-10-19 07:20:00,26.1,12.5,30.08,SW,230,0.0,0.0,56,0.00,,---,0.00,VWS V14.01,2013-10-19 13:20:00,
2013-10-19 07:25:00,26.1,12.1,30.05,SSE,151,0.0,0.0,55,0.00,,---,0.00,VWS V14.01,2013-10-19 13:25:00,
2013-10-19 07:30:00,26.1,12.1,30.05,SSE,151,0.0,0.0,55,0.00,,---,0.00,VWS V14.01,2013-10-19 13:30:00,
2013-10-19 07:35:00,26.1,12.5,30.05,SSE,151,0.0,0.0,56,0.00,,---,0.00,VWS V14.01,2013-10-19 13:35:00,
2013-10-19 07:40:00,25.9,12.4,30.05,SSE,151,0.0,0.0,56,0.00,,---,0.00,VWS V14.01,2013-10-19 13:40:00,
2013-10-19 07:45:00,25.7,12.6,30.05,SSE,151,0.0,0.0,57,0.00,,---,0.00,VWS V14.01,2013-10-19 13:45:00,
2013-10-19 07:50:00,25.7,12.6,30.05,SSW,206,0.0,0.0,57,0.00,,---,0.00,VWS V14.01,2013-10-19 13:50:00,
2013-10-19 07:55:00,26.1,12.9,30.05,SSW,206,0.0,0.0,57,0.00,,---,0.00,VWS V14.01,2013-10-19 13:55:00,
2013-10-19 08:00:00,26.8,13.6,30.05,SSE,166,0.0,0.0,57,0.00,,---,0.00,VWS V14.01,2013-10-19 14:00:00,
2013-10-19 08:05:00,27.7,15.2,30.05,West,271,0.0,3.1,59,0.00,,---,0.00,VWS V14.01,2013-10-19 14:05:00,
2013-10-19 08:10:00,27.7,14.9,30.05,West,271,0.0,3.1,58,0.00,,---,0.00,VWS V14.01,2013-10-19 14:10:00,
2013-10-19 08:15:00,27.9,15.0,30.05,WSW,241,0.0,0.0,58,0.00,,---,0.00,VWS V14.01,2013-10-19 14:15:00,
2013-10-19 08:20:00,28.8,15.9,30.05,WSW,242,0.0,0.0,58,0.00,,---,0.00,VWS V14.01,2013-10-19 14:20:00,
2013-10-19 08:25:00,29.7,16.7,30.05,WSW,257,0.0,0.0,58,0.00,,---,0.00,VWS V14.01,2013-10-19 14:25:00,
2013-10-19 08:30:00,31.1,18.1,30.05,WSW,257,0.0,0.0,58,0.00,,---,0.00,VWS V14.01,2013-10-19 14:30:00,
2013-10-19 08:35:00,32.4,19.2,30.05,SSW,202,0.0,0.0,58,0.00,,---,0.00,VWS V14.01,2013-10-19 14:35:00,
2013-10-19 08:40:00,33.4,19.9,30.05,WSW,242,0.0,0.0,57,0.00,,---,0.00,VWS V14.01,2013-10-19 14:40:00,
2013-10-19 08:45:00,34.3,20.3,30.05,East,88,0.0,0.0,56,0.00,,---,0.00,VWS V14.01,2013-10-19 14:45:00,
2013-10-19 08:50:00,34.5,20.0,30.05,East,88,0.0,0.0,55,0.00,,---,0.00,VWS V14.01,2013-10-19 14:50:00,
2013-10-19 08:55:00,35.4,21.3,30.05,East,88,0.0,0.0,56,0.00,,---,0.00,VWS V14.01,2013-10-19 14:55:00,
2013-10-19 09:00:00,36.9,20.9,30.05,SSE,150,0.0,0.0,52,0.00,,---,0.00,VWS V14.01,2013-10-19 15:00:00,
2013-10-19 09:05:00,37.9,21.9,30.05,SSE,150,0.0,0.0,52,0.00,,---,0.00,VWS V14.01,2013-10-19 15:05:00,
2013-10-19 09:10:00,39.4,23.2,30.05,SE,142,0.0,0.0,52,0.00,,---,0.00,VWS V14.01,2013-10-19 15:10:00,
2013-10-19 09:15:00,40.8,24.1,30.05,SE,142,0.0,0.0,51,0.00,,---,0.00,VWS V14.01,2013-10-19 15:15:00,
2013-10-19 09:20:00,42.3,24.5,30.05,SSE,151,2.7,4.0,49,0.00,,---,0.00,VWS V14.01,2013-10-19 15:20:00,
2013-10-19 09:25:00,43.3,22.9,30.05,SE,140,0.0,5.4,44,0.00,,---,0.00,VWS V14.01,2013-10-19 15:25:00,
2013-10-19 09:30:00,43.9,20.5,30.05,South,171,4.0,4.9,39,0.00,,---,0.00,VWS V14.01,2013-10-19 15:30:00,
2013-10-19 09:35:00,44.6,21.2,30.05,SE,141,2.2,4.9,39,0.00,,---,0.00,VWS V14.01,2013-10-19 15:35:00,
2013-10-19 09:40:00,44.6,19.3,30.05,SSE,151,5.8,7.2,36,0.00,,---,0.00,VWS V14.01,2013-10-19 15:40:00,
2013-10-19 09:45:00,45.1,20.4,30.05,SE,139,5.4,5.4,37,0.00,,---,0.00,VWS V14.01,2013-10-19 15:45:00,
2013-10-19 09:50:00,46.0,18.6,30.05,SSE,151,4.9,6.3,33,0.00,,---,0.00,VWS V14.01,2013-10-19 15:50:00,
2013-10-19 09:55:00,46.8,19.2,30.05,SSE,153,3.1,6.3,33,0.00,,---,0.00,VWS V14.01,2013-10-19 15:55:00,
2013-10-19 10:00:00,47.3,19.7,30.05,SSE,150,3.1,3.6,33,0.00,,---,0.00,VWS V14.01,2013-10-19 16:00:00,
2013-10-19 10:05:00,48.6,20.8,30.05,SSE,156,0.0,5.4,33,0.00,,---,0.00,VWS V14.01,2013-10-19 16:05:00,
2013-10-19 10:10:00,50.5,21.8,30.05,ESE,122,4.0,5.4,32,0.00,,---,0.00,VWS V14.01,2013-10-19 16:10:00,
2013-10-19 10:15:00,51.3,20.1,30.05,ESE,116,3.1,3.6,29,0.00,,---,0.00,VWS V14.01,2013-10-19 16:15:00,
2013-10-19 10:20:00,52.0,20.7,30.05,ESE,110,0.0,4.0,29,0.00,,---,0.00,VWS V14.01,2013-10-19 16:20:00,
2013-10-19 10:25:00,53.2,21.0,30.05,ENE,77,0.0,4.0,28,0.00,,---,0.00,VWS V14.01,2013-10-19 16:25:00,
2013-10-19 10:30:00,53.8,19.7,30.05,NNE,29,3.1,4.0,26,0.00,,---,0.00,VWS V14.01,2013-10-19 16:30:00,
2013-10-19 10:35:00,52.2,19.2,30.05,North,357,0.0,4.0,27,0.00,,---,0.00,VWS V14.01,2013-10-19 16:35:00,
2013-10-19 10:42:00,49.8,18.0,30.05,NNE,20,0.0,0.0,28,0.00,,---,0.00,VWS V14.01,2013-10-19 16:42:00,
2013-10-19 10:47:00,49.1,18.2,30.05,North,353,0.0,0.0,29,0.00,,---,0.00,VWS V14.01,2013-10-19 16:47:00,
2013-10-19 10:52:00,48.0,18.1,30.05,North,3,0.0,3.1,30,0.00,,---,0.00,VWS V14.01,2013-10-19 16:52:00,
2013-10-19 10:57:00,48.4,17.6,30.05,North,3,0.0,3.1,29,0.00,,---,0.00,VWS V14.01,2013-10-19 16:57:00,
2013-10-19 11:02:00,49.5,18.5,30.05,North,357,0.0,0.0,29,0.00,,---,0.00,VWS V14.01,2013-10-19 17:02:00,
2013-10-19 11:07:00,50.2,19.2,30.05,North,7,0.0,0.0,29,0.00,,---,0.00,VWS V14.01,2013-10-19 17:07:00,
2013-10-19 11:12:00,51.1,19.1,30.05,North,7,0.0,0.0,28,0.00,,---,0.00,VWS V14.01,2013-10-19 17:12:00,
2013-10-19 11:17:00,51.4,19.4,30.05,North,6,0.0,0.0,28,0.00,,---,0.00,VWS V14.01,2013-10-19 17:17:00,
2013-10-19 11:22:00,51.4,19.4,30.05,North,4,0.0,0.0,28,0.00,,---,0.00,VWS V14.01,2013-10-19 17:22:00,
2013-10-19 11:27:00,51.6,19.6,30.05,North,0,0.0,0.0,28,0.00,,---,0.00,VWS V14.01,2013-10-19 17:27:00,
2013-10-19 11:32:00,52.7,20.5,30.05,North,3,2.2,2.2,28,0.00,,---,0.00,VWS V14.01,2013-10-19 17:32:00,
2013-10-19 11:37:00,54.1,20.9,30.02,North,357,0.0,2.2,27,0.00,,---,0.00,VWS V14.01,2013-10-19 17:37:00,
2013-10-19 11:42:00,55.6,21.3,30.02,ESE,103,3.1,4.0,26,0.00,,---,0.00,VWS V14.01,2013-10-19 17:42:00,
2013-10-19 11:46:00,57.0,21.6,30.02,NE,52,0.0,0.0,25,0.00,,---,0.00,VWS V14.01,2013-10-19 17:46:00,
2013-10-19 11:51:00,58.8,23.1,30.02,ENE,62,3.6,4.0,25,0.00,,---,0.00,VWS V14.01,2013-10-19 17:51:00,
2013-10-19 11:56:00,60.6,24.6,30.02,ENE,77,3.6,4.9,25,0.00,,---,0.00,VWS V14.01,2013-10-19 17:56:00,
2013-10-19 12:01:00,61.9,24.7,30.02,East,96,2.7,3.6,24,0.00,,---,0.00,VWS V14.01,2013-10-19 18:01:00,
2013-10-19 12:06:00,62.2,25.0,30.02,NE,44,0.0,3.6,24,0.00,,---,0.00,VWS V14.01,2013-10-19 18:06:00,
2013-10-19 12:12:00,60.4,23.5,30.02,North,7,0.0,3.6,24,0.00,,---,0.00,VWS V14.01,2013-10-19 18:12:00,
2013-10-19 12:17:00,59.9,23.0,30.02,NE,41,0.0,3.6,24,0.00,,---,0.00,VWS V14.01,2013-10-19 18:17:00,
2013-10-19 12:22:00,60.3,23.4,30.02,North,5,0.0,3.6,24,0.00,,---,0.00,VWS V14.01,2013-10-19 18:22:00,
2013-10-19 12:27:00,61.0,24.0,30.02,North,5,0.0,3.6,24,0.00,,---,0.00,VWS V14.01,2013-10-19 18:27:00,
2013-10-19 12:32:00,61.9,24.7,30.02,NNW,339,0.0,0.0,24,0.00,,---,0.00,VWS V14.01,2013-10-19 18:32:00,
2013-10-19 12:37:00,62.2,25.0,29.99,NNE,12,0.0,2.2,24,0.00,,---,0.00,VWS V14.01,2013-10-19 18:37:00,
2013-10-19 12:42:00,63.0,24.6,29.99,NNE,19,0.0,2.2,23,0.00,,---,0.00,VWS V14.01,2013-10-19 18:42:00,
2013-10-19 12:47:00,62.8,22.3,29.99,NNE,22,2.2,2.2,21,0.00,,---,0.00,VWS V14.01,2013-10-19 18:47:00,
2013-10-19 12:52:00,62.2,21.9,29.99,NE,37,0.0,2.7,21,0.00,,---,0.00,VWS V14.01,2013-10-19 18:52:00,
2013-10-19 12:56:00,61.7,21.4,29.99,North,7,0.0,3.1,21,0.00,,---,0.00,VWS V14.01,2013-10-19 18:56:00,
2013-10-19 13:01:00,61.2,20.9,29.99,NNE,20,0.0,4.9,21,0.00,,---,0.00,VWS V14.01,2013-10-19 19:01:00,
2013-10-19 13:07:00,61.5,24.4,29.99,NNE,22,0.0,4.9,24,0.00,,---,0.00,VWS V14.01,2013-10-19 19:07:00,
2013-10-19 13:12:00,61.0,24.0,29.99,North,0,2.7,4.9,24,0.00,,---,0.00,VWS V14.01,2013-10-19 19:12:00,
2013-10-19 13:17:00,60.1,23.2,29.99,North,353,0.0,2.2,24,0.00,,---,0.00,VWS V14.01,2013-10-19 19:17:00,
2013-10-19 13:22:00,60.4,23.5,29.99,North,357,3.6,3.6,24,0.00,,---,0.00,VWS V14.01,2013-10-19 19:22:00,
2013-10-19 13:27:00,61.7,21.4,29.99,NNE,22,2.2,3.6,21,0.00,,---,0.00,VWS V14.01,2013-10-19 19:27:00,
2013-10-19 13:32:00,63.1,22.6,29.99,NW,321,0.0,3.6,21,0.00,,---,0.00,VWS V14.01,2013-10-19 19:32:00,
2013-10-19 13:37:00,64.8,22.8,29.99,NNE,28,0.0,3.6,20,0.00,,---,0.00,VWS V14.01,2013-10-19 19:37:00,
2013-10-19 13:42:00,65.7,23.5,29.99,NE,35,0.0,3.6,20,0.00,,---,0.00,VWS V14.01,2013-10-19 19:42:00,
2013-10-19 13:47:00,65.5,23.4,29.99,North,0,0.0,2.7,20,0.00,,---,0.00,VWS V14.01,2013-10-19 19:47:00,
2013-10-19 13:52:00,64.8,22.8,29.99,NNW,335,0.0,2.7,20,0.00,,---,0.00,VWS V14.01,2013-10-19 19:52:00,
2013-10-19 13:57:00,63.9,23.2,29.99,North,0,0.0,2.7,21,0.00,,---,0.00,VWS V14.01,2013-10-19 19:57:00,
2013-10-19 14:02:00,62.4,22.0,29.99,NNE,12,0.0,2.2,21,0.00,,---,0.00,VWS V14.01,2013-10-19 20:02:00,
2013-10-19 14:07:00,61.7,21.4,29.99,North,0,0.0,2.2,21,0.00,,---,0.00,VWS V14.01,2013-10-19 20:07:00,
2013-10-19 14:12:00,61.9,21.5,29.99,NNW,345,0.0,2.2,21,0.00,,---,0.00,VWS V14.01,2013-10-19 20:12:00,
2013-10-19 14:17:00,61.7,21.4,29.99,North,357,0.0,0.0,21,0.00,,---,0.00,VWS V14.01,2013-10-19 20:17:00,
2013-10-19 14:22:00,61.3,21.1,29.99,NNW,341,0.0,6.3,21,0.00,,---,0.00,VWS V14.01,2013-10-19 20:22:00,
2013-10-19 14:27:00,61.2,20.9,29.99,North,357,0.0,6.3,21,0.00,,---,0.00,VWS V14.01,2013-10-19 20:27:00,
2013-10-19 14:32:00,62.8,22.3,29.99,NNE,29,0.0,3.6,21,0.00,,---,0.00,VWS V14.01,2013-10-19 20:32:00,
2013-10-19 14:37:00,63.9,23.2,29.99,North,7,0.0,3.6,21,0.00,,---,0.00,VWS V14.01,2013-10-19 20:37:00,
2013-10-19 14:41:00,64.4,22.5,29.99,North,353,0.0,3.6,20,0.00,,---,0.00,VWS V14.01,2013-10-19 20:41:00,
2013-10-19 14:46:00,65.7,23.5,29.99,ENE,68,2.7,3.6,20,0.00,,---,0.00,VWS V14.01,2013-10-19 20:46:00,
2013-10-19 14:51:00,66.6,24.3,29.99,NE,55,0.0,4.0,20,0.00,,---,0.00,VWS V14.01,2013-10-19 20:51:00,
2013-10-19 14:56:00,65.7,23.5,29.99,East,85,0.0,4.0,20,0.00,,---,0.00,VWS V14.01,2013-10-19 20:56:00,
2013-10-19 15:01:00,64.0,23.3,29.99,East,99,2.7,3.1,21,0.00,,---,0.00,VWS V14.01,2013-10-19 21:01:00,
2013-10-19 15:06:00,63.5,22.9,29.99,East,99,0.0,3.1,21,0.00,,---,0.00,VWS V14.01,2013-10-19 21:06:00,
2013-10-19 15:11:00,64.9,22.9,29.96,East,99,0.0,3.1,20,0.00,,---,0.00,VWS V14.01,2013-10-19 21:11:00,
2013-10-19 15:16:00,66.0,23.8,29.96,East,99,0.0,0.0,20,0.00,,---,0.00,VWS V14.01,2013-10-19 21:16:00,
2013-10-19 15:21:00,66.7,24.4,29.96,NE,34,0.0,0.0,20,0.00,,---,0.00,VWS V14.01,2013-10-19 21:21:00,
2013-10-19 15:26:00,67.8,25.3,29.96,NE,35,0.0,0.0,20,0.00,,---,0.00,VWS V14.01,2013-10-19 21:26:00,
2013-10-19 15:31:00,69.3,26.5,29.96,ENE,67,0.0,0.0,20,0.00,,---,0.00,VWS V14.01,2013-10-19 21:31:00,
2013-10-19 15:36:00,67.8,21.5,29.96,NE,51,0.0,0.0,17,0.00,,---,0.00,VWS V14.01,2013-10-19 21:36:00,
2013-10-19 15:41:00,66.4,20.3,29.96,South,177,2.7,3.6,17,0.00,,---,0.00,VWS V14.01,2013-10-19 21:41:00,
2013-10-19 15:46:00,65.1,20.6,29.96,South,171,0.0,0.0,18,0.00,,---,0.00,VWS V14.01,2013-10-19 21:46:00,
2013-10-19 15:51:00,64.6,20.1,29.96,ESE,106,0.0,0.0,18,0.00,,---,0.00,VWS V14.01,2013-10-19 21:51:00,
2013-10-19 15:56:00,65.8,23.7,29.96,East,83,3.1,4.9,20,0.00,,---,0.00,VWS V14.01,2013-10-19 21:56:00,
2013-10-19 16:01:00,66.0,21.3,29.96,ENE,66,2.7,4.9,18,0.00,,---,0.00,VWS V14.01,2013-10-19 22:01:00,
2013-10-19 16:06:00,65.5,20.9,29.96,ESE,118,3.1,4.9,18,0.00,,---,0.00,VWS V14.01,2013-10-19 22:06:00,
2013-10-19 16:11:00,65.5,20.9,29.96,ENE,68,0.0,4.9,18,0.00,,---,0.00,VWS V14.01,2013-10-19 22:11:00,
2013-10-19 16:16:00,64.8,22.8,29.96,NNW,341,0.0,0.0,20,0.00,,---,0.00,VWS V14.01,2013-10-19 22:16:00,
2013-10-19 16:21:00,63.9,23.2,29.96,NNW,342,0.0,0.0,21,0.00,,---,0.00,VWS V14.01,2013-10-19 22:21:00,
2013-10-19 16:26:00,63.1,22.6,29.96,NNE,13,0.0,0.0,21,0.00,,---,0.00,VWS V14.01,2013-10-19 22:26:00,
2013-10-19 16:31:00,62.2,21.9,29.96,NNE,14,0.0,0.0,21,0.00,,---,0.00,VWS V14.01,2013-10-19 22:31:00,
2013-10-19 16:36:00,62.4,22.0,29.96,NNE,14,0.0,0.0,21,0.00,,---,0.00,VWS V14.01,2013-10-19 22:36:00,
2013-10-19 16:41:00,63.3,22.8,29.96,NNE,14,0.0,0.0,21,0.00,,---,0.00,VWS V14.01,2013-10-19 22:41:00,
2013-10-19 16:46:00,64.8,22.8,29.96,NNE,14,0.0,0.0,20,0.00,,---,0.00,VWS V14.01,2013-10-19 22:46:00,
2013-10-19 16:51:00,65.7,23.5,29.96,NNW,336,0.0,2.2,20,0.00,,---,0.00,VWS V14.01,2013-10-19 22:51:00,
2013-10-19 16:56:00,65.8,23.7,29.96,NNW,332,0.0,2.2,20,0.00,,---,0.00,VWS V14.01,2013-10-19 22:56:00,
2013-10-19 17:01:00,65.7,23.5,29.96,North,11,0.0,0.0,20,0.00,,---,0.00,VWS V14.01,2013-10-19 23:01:00,
2013-10-19 17:06:00,66.2,24.0,29.93,NE,48,0.0,2.7,20,0.00,,---,0.00,VWS V14.01,2013-10-19 23:06:00,
2013-10-19 17:11:00,67.3,24.9,29.93,NE,53,2.2,3.1,20,0.00,,---,0.00,VWS V14.01,2013-10-19 23:11:00,
2013-10-19 17:16:00,68.2,25.6,29.93,ENE,74,2.2,3.1,20,0.00,,---,0.00,VWS V14.01,2013-10-19 23:16:00,
2013-10-19 17:21:00,68.0,25.5,29.93,East,94,3.1,4.0,20,0.00,,---,0.00,VWS V14.01,2013-10-19 23:21:00,
2013-10-19 17:26:00,67.3,24.9,29.96,SE,142,0.0,4.0,20,0.00,,---,0.00,VWS V14.01,2013-10-19 23:26:00,
2013-10-19 17:31:00,67.5,21.2,29.96,SSE,155,4.0,4.0,17,0.00,,---,0.00,VWS V14.01,2013-10-19 23:31:00,
2013-10-19 17:36:00,66.4,20.3,29.96,West,268,4.0,5.8,17,0.00,,---,0.00,VWS V14.01,2013-10-19 23:36:00,
2013-10-19 17:41:00,64.8,20.3,29.93,SSW,205,3.6,6.3,18,0.00,,---,0.00,VWS V14.01,2013-10-19 23:41:00,
2013-10-19 17:46:00,63.5,16.5,29.93,SSW,197,0.0,0.0,16,0.00,,---,0.00,VWS V14.01,2013-10-19 23:46:00,
2013-10-19 17:51:00,63.0,16.1,29.93,SSW,193,0.0,4.0,16,0.00,,---,0.00,VWS V14.01,2013-10-19 23:51:00,
2013-10-19 17:56:00,62.2,15.5,29.93,SW,216,0.0,4.0,16,0.00,,---,0.00,VWS V14.01,2013-10-19 23:56:00,
2013-10-19 18:01:00,61.9,15.2,29.93,WSW,250,0.0,0.0,16,0.00,,---,0.00,VWS V14.01,2013-10-20 00:01:00,
2013-10-19 18:06:00,61.5,14.9,29.93,WSW,255,0.0,0.0,16,0.00,,---,0.00,VWS V14.01,2013-10-20 00:06:00,
2013-10-19 18:11:00,60.8,14.4,29.93,WSW,251,0.0,2.2,16,0.00,,---,0.00,VWS V14.01,2013-10-20 00:11:00,
2013-10-19 18:16:00,60.4,15.4,29.93,SSW,194,0.0,0.0,17,0.00,,---,0.00,VWS V14.01,2013-10-20 00:16:00,
2013-10-19 18:21:00,59.9,15.0,29.93,SW,223,0.0,0.0,17,0.00,,---,0.00,VWS V14.01,2013-10-20 00:21:00,
2013-10-19 18:26:00,58.8,14.1,29.93,SW,223,0.0,0.0,17,0.00,,---,0.00,VWS V14.01,2013-10-20 00:26:00,
2013-10-19 18:31:00,58.1,13.5,29.93,SW,231,0.0,0.0,17,0.00,,---,0.00,VWS V14.01,2013-10-20 00:31:00,
2013-10-19 18:36:00,57.2,12.8,29.93,WSW,248,0.0,3.1,17,0.00,,---,0.00,VWS V14.01,2013-10-20 00:36:00,
2013-10-19 18:41:00,56.3,12.1,29.93,WSW,247,0.0,3.1,17,0.00,,---,0.00,VWS V14.01,2013-10-20 00:41:00,
2013-10-19 18:46:00,55.0,12.3,29.93,WSW,247,0.0,0.0,18,0.00,,---,0.00,VWS V14.01,2013-10-20 00:46:00,
2013-10-19 18:51:00,53.6,13.5,29.93,West,259,0.0,3.1,20,0.00,,---,0.00,VWS V14.01,2013-10-20 00:51:00,
2013-10-19 18:56:00,52.7,13.9,29.93,West,259,0.0,3.1,21,0.00,,---,0.00,VWS V14.01,2013-10-20 00:56:00,
2013-10-19 19:01:00,51.6,13.0,29.93,West,267,0.0,0.0,21,0.00,,---,0.00,VWS V14.01,2013-10-20 01:01:00,
2013-10-19 19:06:00,51.4,12.8,29.93,WSW,248,0.0,0.0,21,0.00,,---,0.00,VWS V14.01,2013-10-20 01:06:00,
2013-10-19 19:11:00,51.3,12.7,29.93,East,97,0.0,0.0,21,0.00,,---,0.00,VWS V14.01,2013-10-20 01:11:00,
2013-10-19 19:16:00,50.7,12.2,29.93,East,97,0.0,0.0,21,0.00,,---,0.00,VWS V14.01,2013-10-20 01:16:00,
2013-10-19 19:21:00,50.4,11.9,29.93,South,183,0.0,0.0,21,0.00,,---,0.00,VWS V14.01,2013-10-20 01:21:00,
2013-10-19 19:26:00,50.0,11.6,29.93,SW,231,0.0,3.6,21,0.00,,---,0.00,VWS V14.01,2013-10-20 01:26:00,
2013-10-19 19:31:00,49.6,11.3,29.93,SSE,153,0.0,0.0,21,0.00,,---,0.00,VWS V14.01,2013-10-20 01:31:00,
2013-10-19 19:36:00,49.3,11.0,29.93,West,263,2.7,2.7,21,0.00,,---,0.00,VWS V14.01,2013-10-20 01:36:00,
2013-10-19 19:41:00,49.1,10.9,29.93,West,263,0.0,3.1,21,0.00,,---,0.00,VWS V14.01,2013-10-20 01:41:00,
2013-10-19 19:46:00,48.9,10.7,29.93,SW,225,3.1,3.6,21,0.00,,---,0.00,VWS V14.01,2013-10-20 01:46:00,
2013-10-19 19:51:00,48.7,10.6,29.93,SW,227,0.0,3.6,21,0.00,,---,0.00,VWS V14.01,2013-10-20 01:51:00,
2013-10-19 19:56:00,49.1,10.9,29.96,SW,225,0.0,3.6,21,0.00,,---,0.00,VWS V14.01,2013-10-20 01:56:00,
2013-10-19 20:01:00,49.1,10.9,29.96,WNW,289,5.4,5.4,21,0.00,,---,0.00,VWS V14.01,2013-10-20 02:01:00,
2013-10-19 20:06:00,49.3,11.0,29.96,WNW,289,0.0,5.4,21,0.00,,---,0.00,VWS V14.01,2013-10-20 02:06:00,
2013-10-19 20:11:00,49.6,11.3,29.96,SSW,198,2.7,5.4,21,0.00,,---,0.00,VWS V14.01,2013-10-20 02:11:00,
2013-10-19 20:16:00,50.4,11.9,29.96,SSW,198,0.0,0.0,21,0.00,,---,0.00,VWS V14.01,2013-10-20 02:16:00,
2013-10-19 20:21:00,50.5,12.1,29.96,SSW,198,0.0,0.0,21,0.00,,---,0.00,VWS V14.01,2013-10-20 02:21:00,
2013-10-19 20:26:00,50.0,11.6,29.96,SW,215,2.7,4.0,21,0.00,,---,0.00,VWS V14.01,2013-10-20 02:26:00,
2013-10-19 20:31:00,49.5,11.2,29.96,SW,224,0.0,0.0,21,0.00,,---,0.00,VWS V14.01,2013-10-20 02:31:00,
2013-10-19 20:36:00,49.1,10.9,29.96,SW,224,0.0,0.0,21,0.00,,---,0.00,VWS V14.01,2013-10-20 02:36:00,
2013-10-19 20:41:00,48.7,10.6,29.96,SW,224,0.0,0.0,21,0.00,,---,0.00,VWS V14.01,2013-10-20 02:41:00,
2013-10-19 20:46:00,48.4,10.3,29.96,SW,224,0.0,0.0,21,0.00,,---,0.00,VWS V14.01,2013-10-20 02:46:00,
2013-10-19 20:51:00,47.8,10.9,29.96,West,261,2.2,2.7,22,0.00,,---,0.00,VWS V14.01,2013-10-20 02:51:00,
2013-10-19 20:56:00,48.0,11.0,29.96,SSW,192,0.0,2.7,22,0.00,,---,0.00,VWS V14.01,2013-10-20 02:56:00,
2013-10-19 21:01:00,47.8,10.9,29.96,SSW,192,0.0,0.0,22,0.00,,---,0.00,VWS V14.01,2013-10-20 03:01:00,
2013-10-19 21:06:00,47.1,10.2,29.96,SSW,212,0.0,0.0,22,0.00,,---,0.00,VWS V14.01,2013-10-20 03:06:00,
2013-10-19 21:11:00,46.6,9.8,29.96,WSW,253,0.0,0.0,22,0.00,,---,0.00,VWS V14.01,2013-10-20 03:11:00,
2013-10-19 21:16:00,45.9,9.2,29.96,WSW,254,0.0,0.0,22,0.00,,---,0.00,VWS V14.01,2013-10-20 03:16:00,
2013-10-19 21:21:00,46.4,9.6,29.96,WSW,246,3.1,3.1,22,0.00,,---,0.00,VWS V14.01,2013-10-20 03:21:00,
2013-10-19 21:26:00,50.9,10.1,29.96,NNW,334,0.0,5.4,19,0.00,,---,0.00,VWS V14.01,2013-10-20 03:26:00,
2013-10-19 21:31:00,53.6,11.1,29.96,North,350,0.0,0.0,18,0.00,,---,0.00,VWS V14.01,2013-10-20 03:31:00,
2013-10-19 21:36:00,54.5,11.9,29.96,SW,229,0.0,4.0,18,0.00,,---,0.00,VWS V14.01,2013-10-20 03:36:00,
2013-10-19 21:41:00,55.0,12.3,29.96,NNE,26,0.0,4.0,18,0.00,,---,0.00,VWS V14.01,2013-10-20 03:41:00,
2013-10-19 21:46:00,55.4,11.3,29.96,NNE,32,0.0,0.0,17,0.00,,---,0.00,VWS V14.01,2013-10-20 03:46:00,
2013-10-19 21:51:00,54.9,12.2,29.96,SW,220,0.0,0.0,18,0.00,,---,0.00,VWS V14.01,2013-10-20 03:51:00,
2013-10-19 21:56:00,52.7,10.4,29.96,SSW,195,0.0,0.0,18,0.00,,---,0.00,VWS V14.01,2013-10-20 03:56:00,
2013-10-19 22:01:00,51.1,10.3,29.96,WSW,257,0.0,3.6,19,0.00,,---,0.00,VWS V14.01,2013-10-20 04:01:00,
2013-10-19 22:06:00,49.6,9.1,29.96,South,172,2.7,4.0,19,0.00,,---,0.00,VWS V14.01,2013-10-20 04:06:00,
2013-10-19 22:11:00,48.2,7.9,29.96,SSE,166,0.0,4.9,19,0.00,,---,0.00,VWS V14.01,2013-10-20 04:11:00,
2013-10-19 22:16:00,47.3,7.1,29.96,SSW,203,0.0,0.0,19,0.00,,---,0.00,VWS V14.01,2013-10-20 04:16:00,
2013-10-19 22:21:00,46.8,6.7,29.96,ESE,123,0.0,0.0,19,0.00,,---,0.00,VWS V14.01,2013-10-20 04:21:00,
2013-10-19 22:26:00,46.0,7.2,29.99,SE,127,0.0,0.0,20,0.00,,---,0.00,VWS V14.01,2013-10-20 04:26:00,
2013-10-19 22:31:00,45.5,8.9,29.99,SE,126,0.0,0.0,22,0.00,,---,0.00,VWS V14.01,2013-10-20 04:31:00,
2013-10-19 22:36:00,45.3,8.7,29.96,West,275,0.0,3.1,22,0.00,,---,0.00,VWS V14.01,2013-10-20 04:36:00,
2013-10-19 22:41:00,45.3,8.7,29.96,SE,146,4.0,4.0,22,0.00,,---,0.00,VWS V14.01,2013-10-20 04:41:00,
2013-10-19 22:46:00,46.8,9.9,29.96,SE,142,0.0,0.0,22,0.00,,---,0.00,VWS V14.01,2013-10-20 04:46:00,
2013-10-19 22:51:00,47.3,10.4,29.96,ESE,122,0.0,0.0,22,0.00,,---,0.00,VWS V14.01,2013-10-20 04:51:00,
2013-10-19 22:56:00,47.7,10.7,29.99,West,271,0.0,3.6,22,0.00,,---,0.00,VWS V14.01,2013-10-20 04:56:00,
2013-10-19 23:01:00,47.8,10.9,29.99,NNE,32,0.0,0.0,22,0.00,,---,0.00,VWS V14.01,2013-10-20 05:01:00,
2013-10-19 23:06:00,47.5,10.6,29.99,NNE,32,0.0,0.0,22,0.00,,---,0.00,VWS V14.01,2013-10-20 05:06:00,
2013-10-19 23:11:00,47.1,10.2,29.99,NNE,32,0.0,0.0,22,0.00,,---,0.00,VWS V14.01,2013-10-20 05:11:00,
2013-10-19 23:16:00,46.8,9.9,29.99,SSW,195,0.0,0.0,22,0.00,,---,0.00,VWS V14.01,2013-10-20 05:16:00,
2013-10-19 23:21:00,46.6,9.8,29.99,SSW,202,0.0,0.0,22,0.00,,---,0.00,VWS V14.01,2013-10-20 05:21:00,
2013-10-19 23:26:00,46.4,9.6,29.99,SW,218,0.0,0.0,22,0.00,,---,0.00,VWS V14.01,2013-10-20 05:26:00,
2013-10-19 23:31:00,46.4,9.6,29.99,SW,218,0.0,0.0,22,0.00,,---,0.00,VWS V14.01,2013-10-20 05:31:00,
2013-10-19 23:36:00,46.8,9.9,29.99,SSE,165,0.0,0.0,22,0.00,,---,0.00,VWS V14.01,2013-10-20 05:36:00,
2013-10-19 23:41:00,46.8,9.9,29.99,SW,235,0.0,0.0,22,0.00,,---,0.00,VWS V14.01,2013-10-20 05:41:00,
2013-10-19 23:46:00,46.4,9.6,29.99,SW,235,0.0,0.0,22,0.00,,---,0.00,VWS V14.01,2013-10-20 05:46:00,
2013-10-19 23:51:00,46.2,9.5,29.99,SW,235,0.0,0.0,22,0.00,,---,0.00,VWS V14.01,2013-10-20 05:51:00,
2013-10-19 23:56:00,45.9,9.2,29.99,SW,235,0.0,0.0,22,0.00,,---,0.00,VWS V14.01,2013-10-20 05:56:00,